Voltar ao catálogo

STARLINK-11536

AtivoComunicaçõesVLEO
NORAD 62563·PAYLOAD·🇺🇸 United States

Lançado Jan 10, 2025 de Cape Canaveral Space Force Station

Loading…

Próximas Passagens (próximas 24 horas)

TLE

AtualizadoSource: CelesTrak SupGP

Época: Sep 14, 2026, 21:11 UTC

1 62563C 25006K   26257.88312500  .00023575  00000+0  18319-3 0  2577
2 62563  43.0009  79.3582 0001595 282.9688 277.1799 15.70815585    15

Acompanhe STARLINK-11536 em tempo real com AllMySat

Download on the App Store